Tracking 28790 objects as of 19-Apr-2024
HD Live streaming from Space Station
objects crossing your sky now

HGS-1 (ASIASAT 3)

Track HGS-1 (ASIASAT 3) now!
HGS-1 (ASIASAT 3) is classified as:


NORAD ID: 25126
Int'l Code: 1997-086A
Perigee: 35,590.6 km
Apogee: 36,034.1 km
Inclination: 11.9 °
Period: 1,437.0 minutes
Semi major axis: 42183 km
RCS: 10.4313 m2 (large)
Launch date: December 24, 1997
Source: United States (US)
Launch site: TYURATAM MISSILE AND SPACE COMPLEX (TTMTR)
Your satellite tracking list
Your tracking list is empty




NASA's NSSDC Master Catalog

Two Line Element Set (TLE):
1 25126U 97086A   24109.48382786  .00000115  00000-0  00000-0 0  9995
2 25126  11.8818  38.4814 0052563  28.6817 163.0836  1.00205388 97219
Source of the keplerian elements: AFSPC